This demonstration page uses our WeatherBlox Daily Observations layout. Learn more.

Left ArrowRight Arrow

Hourly Observations for May 27, 2016

Temp ( °F °C ) Dew Point ( °F °C ) Humidity (%) Winds ( mph kmh ) Pressure ( in mb ) Visibility ( mi km ) Precip ( " mm )
12:51 am 00:51 Clear 61 16.1 24 -4.4 24 24 NNW 6 9 29.80 1009 10 16 0.00 0.00
1:51 am 01:51 Clear 58 14.4 23 -5 26 26 WNW 5 7 29.80 1009 10 16 0.00 0.00
2:51 am 02:51 Clear 57 13.9 23 -5 27 27 NW 5 7 29.79 1009 10 16 0.00 0.00
3:51 am 03:51 Clear 55 12.8 23 -5 29 29 SW 5 7 29.79 1009 10 16 0.00 0.00
4:51 am 04:51 Clear 52 11.1 23 -5 32 32 E 6 9 29.81 1010 10 16 0.00 0.00
5:51 am 05:51 Sunny 53 11.7 23 -5 31 31 SE 5 7 29.83 1010 10 16 0.00 0.00
6:51 am 06:51 Sunny 60 15.6 24 -4.4 25 25 ESE 5 7 29.84 1011 10 16 0.00 0.00
7:51 am 07:51 Sunny 64 17.8 25 -3.9 23 23 SSE 6 9 29.84 1011 10 16 0.00 0.00
8:51 am 08:51 Sunny 73 22.8 27 -2.8 18 18 WNW 8 13 29.82 1010 10 16 0.00 0.00
9:51 am 09:51 Sunny 76 24.4 29 -1.7 18 18 W 13 20 29.80 1009 10 16 0.00 0.00
10:51 am 10:51 Sunny 80 26.7 28 -2.2 15 15 NW 12 19 29.77 1008 10 16 0.00 0.00
11:51 am 11:51 Sunny 82 27.8 25 -3.9 12 12 NW 9 15 29.75 1008 10 16 0.00 0.00
12:51 pm 12:51 Sunny 83 28.3 25 -3.9 12 12 NNW 18 30 29.73 1007 10 16 0.00 0.00
1:51 pm 13:51 Sunny 85 29.4 22 -5.6 10 10 WNW 16 26 29.70 1006 10 16 0.00 0.00
2:51 pm 14:51 Sunny 86 30 24 -4.4 10 10 undefined N/A 29.69 1005 10 16 0.00 0.00
3:51 pm 15:51 Sunny 86 30 22 -5.6 9 9 N 9 15 29.68 1005 10 16 0.00 0.00
4:51 pm 16:51 Sunny 85 29.4 23 -5 10 10 WNW 12 19 29.67 1005 10 16 0.00 0.00
5:51 pm 17:51 Sunny 84 28.9 17 -8.3 8 8 W 16 26 29.67 1005 10 16 0.00 0.00
6:51 pm 18:51 Sunny 82 27.8 20 -6.7 10 10 NW 14 22 29.68 1005 10 16 0.00 0.00
7:51 pm 19:51 Clear 77 25 20 -6.7 12 12 WNW 10 17 29.70 1006 10 16 0.00 0.00
8:51 pm 20:51 Clear 72 22.2 20 -6.7 14 14 NW 9 15 29.73 1007 10 16 0.00 0.00
9:51 pm 21:51 Clear 72 22.2 22 -5.6 15 15 NW 10 17 29.73 1007 10 16 0.00 0.00
10:51 pm 22:51 Clear 72 22.2 22 -5.6 15 15 WNW 12 19 29.73 1007 10 16 0.00 0.00
11:51 pm 23:51 Clear 66 18.9 22 -5.6 19 19 NNW 6 9 29.74 1007 10 16 0.00 0.00

Powered by AerisWeather